Location: Unspecified
(50.1700°N, 6.8600°E)
Time: 13:16:34
(UTC+00:00)

RESURS DK-1 - Pass Details

Date: 24 January 2019
Orbit: 557 x 561 km, 69.9° (Epoch: 19 February)

Event Time Altitude Azimuth Distance (km) Brightness Sun altitude
Exits shadow 04:50:11 67° 176° (S) 611 2.4 -23.3°
Drops below altitude 10° 04:53:48 10° 155° (SSE) 1,842 5.3 -22.7°
Sets 04:56:00 0° 154° (SSE) 2,732 6.3 -22.4°
